Year,Month,Day,Hour,Minute,Value (Times are PST for temperature in C)
2008,05,31,07,26,10.00
2008,05,31,07,27,10.10
2008,05,31,07,28,10.20
2008,05,31,07,29,10.30
2008,05,31,07,30,10.40
2008,05,31,07,31,10.50
2008,05,31,07,32,10.70
2008,05,31,07,33,10.80
2008,05,31,07,34,10.80
2008,05,31,07,35,10.90
2008,05,31,07,36,11.00
2008,05,31,07,37,11.10
2008,05,31,07,38,11.10
2008,05,31,07,39,11.20
2008,05,31,07,40,11.20
2008,05,31,07,41,11.30
2008,05,31,07,42,11.30
2008,05,31,07,43,11.30
2008,05,31,07,44,11.40
2008,05,31,07,45,11.40
2008,05,31,07,46,11.50
2008,05,31,07,47,11.50
2008,05,31,07,48,11.60
2008,05,31,07,49,11.60
2008,05,31,07,50,11.70
2008,05,31,07,51,11.70
2008,05,31,07,52,11.80
2008,05,31,07,53,11.90
2008,05,31,07,54,11.90
2008,05,31,07,55,12.00
2008,05,31,07,56,12.00
2008,05,31,07,57,12.00
2008,05,31,07,58,12.10
2008,05,31,07,59,12.10
2008,05,31,08,00,12.10
2008,05,31,08,01,12.10
2008,05,31,08,02,12.20
2008,05,31,08,03,12.20
2008,05,31,08,04,12.10
2008,05,31,08,05,12.10
2008,05,31,08,06,12.00
2008,05,31,08,07,11.90
2008,05,31,08,08,11.90
2008,05,31,08,09,11.90
2008,05,31,08,10,11.90
2008,05,31,08,11,11.90
2008,05,31,08,12,11.90
2008,05,31,08,13,12.00
2008,05,31,08,14,12.00
2008,05,31,08,15,12.10
2008,05,31,08,16,12.20
2008,05,31,08,17,12.30
2008,05,31,08,18,12.40
2008,05,31,08,19,12.50
2008,05,31,08,20,12.60
2008,05,31,08,21,12.70
2008,05,31,08,22,12.80
2008,05,31,08,23,12.80
2008,05,31,08,24,12.80
2008,05,31,08,25,12.80
2008,05,31,08,26,12.80
2008,05,31,08,27,12.80
2008,05,31,08,28,12.80
2008,05,31,08,29,12.80
2008,05,31,08,30,12.90
2008,05,31,08,31,12.90
2008,05,31,08,32,13.00
2008,05,31,08,33,13.00
2008,05,31,08,34,13.00
2008,05,31,08,35,13.10
2008,05,31,08,36,13.10
2008,05,31,08,37,13.10
2008,05,31,08,38,13.10
2008,05,31,08,39,13.10
2008,05,31,08,40,13.20
2008,05,31,08,41,13.20
2008,05,31,08,42,13.30
2008,05,31,08,43,13.30
2008,05,31,08,44,13.30
2008,05,31,08,45,13.30
2008,05,31,08,46,13.30
2008,05,31,08,47,13.30
2008,05,31,08,48,13.30
2008,05,31,08,49,13.30
2008,05,31,08,50,13.30
2008,05,31,08,51,13.30
2008,05,31,08,52,13.30
2008,05,31,08,53,13.40
2008,05,31,08,54,13.40
2008,05,31,08,55,13.40
2008,05,31,08,56,13.40
2008,05,31,08,57,13.40
2008,05,31,08,58,13.50
2008,05,31,08,59,13.50
2008,05,31,09,00,13.50
2008,05,31,09,01,13.50
2008,05,31,09,02,13.60
2008,05,31,09,03,13.50
2008,05,31,09,04,13.50
2008,05,31,09,05,13.50
2008,05,31,09,06,13.50
2008,05,31,09,07,13.50
2008,05,31,09,08,13.50
2008,05,31,09,09,13.50
2008,05,31,09,10,13.50
2008,05,31,09,11,13.50
2008,05,31,09,12,13.60
2008,05,31,09,13,13.60
2008,05,31,09,14,13.60
2008,05,31,09,15,13.60
2008,05,31,09,16,13.60
2008,05,31,09,17,13.60
2008,05,31,09,18,13.60
2008,05,31,09,19,13.60
2008,05,31,09,20,13.60
2008,05,31,09,21,13.60
2008,05,31,09,22,13.60
2008,05,31,09,23,13.60
2008,05,31,09,24,13.60
2008,05,31,09,25,13.60
2008,05,31,09,26,13.60
2008,05,31,09,27,13.60
2008,05,31,09,28,13.70
2008,05,31,09,29,13.70
2008,05,31,09,30,13.80
2008,05,31,09,31,13.90
2008,05,31,09,32,13.90
2008,05,31,09,33,14.00
2008,05,31,09,34,14.10
2008,05,31,09,35,14.20
2008,05,31,09,36,14.20
2008,05,31,09,37,14.20
2008,05,31,09,38,14.30
2008,05,31,09,39,14.30
2008,05,31,09,40,14.40
2008,05,31,09,41,14.40
2008,05,31,09,42,14.30
2008,05,31,09,43,14.30
2008,05,31,09,44,14.30
2008,05,31,09,45,14.30
2008,05,31,09,46,14.30
2008,05,31,09,47,14.30
2008,05,31,09,48,14.40
2008,05,31,09,49,14.50
2008,05,31,09,50,14.50
2008,05,31,09,51,14.50
2008,05,31,09,52,14.50
2008,05,31,09,53,14.50
2008,05,31,09,54,14.50
2008,05,31,09,55,14.60
2008,05,31,09,56,14.60
2008,05,31,09,57,14.60
2008,05,31,09,58,14.60
2008,05,31,09,59,14.60
2008,05,31,10,00,14.70
2008,05,31,10,01,14.70
2008,05,31,10,02,14.70
2008,05,31,10,03,14.70
2008,05,31,10,04,14.80
2008,05,31,10,05,14.80
2008,05,31,10,06,14.90
2008,05,31,10,07,15.00
2008,05,31,10,08,14.90
2008,05,31,10,09,14.80
2008,05,31,10,10,14.70
2008,05,31,10,11,14.60
2008,05,31,10,12,14.70
2008,05,31,10,13,14.70
2008,05,31,10,14,14.70
2008,05,31,10,15,14.70
2008,05,31,10,16,14.80
2008,05,31,10,17,14.90
2008,05,31,10,18,15.00
2008,05,31,10,19,15.00
2008,05,31,10,20,15.00
2008,05,31,10,21,15.00
2008,05,31,10,22,15.00
2008,05,31,10,23,15.00
2008,05,31,10,24,15.00
2008,05,31,10,25,15.00
2008,05,31,10,26,15.00
2008,05,31,10,27,15.00
2008,05,31,10,28,15.00
2008,05,31,10,29,15.00
2008,05,31,10,30,14.90
2008,05,31,10,31,15.00
2008,05,31,10,32,15.00
2008,05,31,10,33,15.00
2008,05,31,10,34,15.00
2008,05,31,10,35,15.00
2008,05,31,10,36,15.00
2008,05,31,10,37,15.00
2008,05,31,10,38,15.00
2008,05,31,10,39,15.00
2008,05,31,10,40,15.00
2008,05,31,10,41,15.00
2008,05,31,10,42,15.00
2008,05,31,10,43,15.00
2008,05,31,10,44,15.00
2008,05,31,10,45,15.10
2008,05,31,10,46,15.20
2008,05,31,10,47,15.30
2008,05,31,10,48,15.30
2008,05,31,10,49,15.30
2008,05,31,10,50,15.30
2008,05,31,10,51,15.30
2008,05,31,10,52,15.40
2008,05,31,10,53,15.40
2008,05,31,10,54,15.40
2008,05,31,10,55,15.40
2008,05,31,10,56,15.40
2008,05,31,10,57,15.50
2008,05,31,10,58,15.50
2008,05,31,10,59,15.40
2008,05,31,11,00,15.40
2008,05,31,11,01,15.40
2008,05,31,11,02,15.40
2008,05,31,11,03,15.40
2008,05,31,11,04,15.40
2008,05,31,11,05,15.40
2008,05,31,11,06,15.40
2008,05,31,11,07,15.30
2008,05,31,11,08,15.30
2008,05,31,11,09,15.20
2008,05,31,11,10,15.20
2008,05,31,11,11,15.20
2008,05,31,11,12,15.20
2008,05,31,11,13,15.10
2008,05,31,11,14,15.10
2008,05,31,11,15,15.10
2008,05,31,11,16,15.20
2008,05,31,11,17,15.20
2008,05,31,11,18,15.20
2008,05,31,11,19,15.20
2008,05,31,11,20,15.20
2008,05,31,11,21,15.20
2008,05,31,11,22,15.20
2008,05,31,11,23,15.20
2008,05,31,11,24,15.20
2008,05,31,11,25,15.20
2008,05,31,11,26,15.20
2008,05,31,11,27,15.30
2008,05,31,11,28,15.30
2008,05,31,11,29,15.40
2008,05,31,11,30,15.50
2008,05,31,11,31,15.60
2008,05,31,11,32,15.60
2008,05,31,11,33,15.70
2008,05,31,11,34,15.60
2008,05,31,11,35,15.40
2008,05,31,11,36,15.40
2008,05,31,11,37,15.40
2008,05,31,11,38,15.40
2008,05,31,11,39,15.50
2008,05,31,11,40,15.50
2008,05,31,11,41,15.60
2008,05,31,11,42,15.60
2008,05,31,11,43,15.60
2008,05,31,11,44,15.60
2008,05,31,11,45,15.60
2008,05,31,11,46,15.60
2008,05,31,11,47,15.50
2008,05,31,11,48,15.50
2008,05,31,11,49,15.50
2008,05,31,11,50,15.50
2008,05,31,11,51,15.40
2008,05,31,11,52,15.30
2008,05,31,11,53,15.30
2008,05,31,11,54,15.20
2008,05,31,11,55,15.20
2008,05,31,11,56,15.30
2008,05,31,11,57,15.30
2008,05,31,11,58,15.30
2008,05,31,11,59,15.20
2008,05,31,12,00,15.10
2008,05,31,12,01,15.20
2008,05,31,12,02,15.30
2008,05,31,12,03,15.30
2008,05,31,12,04,15.50
2008,05,31,12,05,15.60
2008,05,31,12,06,15.70
2008,05,31,12,07,15.70
2008,05,31,12,08,15.60
2008,05,31,12,09,15.60
2008,05,31,12,10,15.60
2008,05,31,12,11,15.60
2008,05,31,12,12,15.50
2008,05,31,12,13,15.60
2008,05,31,12,14,15.70
2008,05,31,12,15,15.70
2008,05,31,12,16,15.60
2008,05,31,12,17,15.60
2008,05,31,12,18,15.70
2008,05,31,12,19,15.80
2008,05,31,12,20,15.80
2008,05,31,12,21,15.90
2008,05,31,12,22,15.90
2008,05,31,12,23,16.00
2008,05,31,12,24,16.00
2008,05,31,12,25,16.10
2008,05,31,12,26,16.10
2008,05,31,12,27,16.10
2008,05,31,12,28,16.20
2008,05,31,12,29,16.20
2008,05,31,12,30,16.30
2008,05,31,12,31,16.30
2008,05,31,12,32,16.40
2008,05,31,12,33,16.50
2008,05,31,12,34,16.50
2008,05,31,12,35,16.50
2008,05,31,12,36,16.60
2008,05,31,12,37,16.60
2008,05,31,12,38,16.50
2008,05,31,12,39,16.40
2008,05,31,12,40,16.50
2008,05,31,12,41,16.50
2008,05,31,12,42,16.60
2008,05,31,12,43,16.60
2008,05,31,12,44,16.70
2008,05,31,12,45,16.80
2008,05,31,12,46,16.90
2008,05,31,12,47,17.00
2008,05,31,12,48,17.00
2008,05,31,12,49,17.10
2008,05,31,12,50,17.00
2008,05,31,12,51,17.00
2008,05,31,12,52,16.90
2008,05,31,12,53,16.90
2008,05,31,12,54,17.00
2008,05,31,12,55,17.10
2008,05,31,12,56,17.10
2008,05,31,12,57,17.20
2008,05,31,12,58,17.20
2008,05,31,12,59,17.20
2008,05,31,13,00,17.20
2008,05,31,13,01,17.20
2008,05,31,13,02,17.20
2008,05,31,13,03,17.30
2008,05,31,13,04,17.30
2008,05,31,13,05,17.40
2008,05,31,13,06,17.40
2008,05,31,13,07,17.40
2008,05,31,13,08,17.40
2008,05,31,13,09,17.40
2008,05,31,13,10,17.30
2008,05,31,13,11,17.20
2008,05,31,13,12,17.10
2008,05,31,13,13,17.10
2008,05,31,13,14,17.20
2008,05,31,13,15,17.20
2008,05,31,13,16,17.30
2008,05,31,13,17,17.30
2008,05,31,13,18,17.30
2008,05,31,13,19,17.40
2008,05,31,13,20,17.50
2008,05,31,13,21,17.60
2008,05,31,13,22,17.60
2008,05,31,13,23,17.60
2008,05,31,13,24,17.70
2008,05,31,13,25,17.80
2008,05,31,13,26,18.00
2008,05,31,13,27,18.10
2008,05,31,13,28,18.00
2008,05,31,13,29,17.90
2008,05,31,13,30,17.80
2008,05,31,13,31,17.80
2008,05,31,13,32,17.90
2008,05,31,13,33,18.00
2008,05,31,13,34,18.10
2008,05,31,13,35,18.10
2008,05,31,13,36,18.20
2008,05,31,13,37,18.10
2008,05,31,13,38,18.10
2008,05,31,13,39,18.10
2008,05,31,13,40,18.10
2008,05,31,13,41,17.90
2008,05,31,13,42,17.70
2008,05,31,13,43,17.60
2008,05,31,13,44,17.50
2008,05,31,13,45,17.40
2008,05,31,13,46,17.40
2008,05,31,13,47,17.50
2008,05,31,13,48,17.50
2008,05,31,13,49,17.50
2008,05,31,13,50,17.60
2008,05,31,13,51,17.80
2008,05,31,13,52,17.90
2008,05,31,13,53,18.10
2008,05,31,13,54,18.20
2008,05,31,13,55,18.30
2008,05,31,13,56,18.30
2008,05,31,13,57,18.40
2008,05,31,13,58,18.40
2008,05,31,13,59,18.30
2008,05,31,14,00,18.20
2008,05,31,14,01,18.20
2008,05,31,14,02,18.20
2008,05,31,14,03,18.30
2008,05,31,14,04,18.30
2008,05,31,14,05,18.30
2008,05,31,14,06,18.30
2008,05,31,14,07,18.20
2008,05,31,14,08,18.20
2008,05,31,14,09,18.10
2008,05,31,14,10,18.10
2008,05,31,14,11,17.90
2008,05,31,14,12,17.90
2008,05,31,14,13,17.90
2008,05,31,14,14,17.90
2008,05,31,14,15,17.90
2008,05,31,14,16,18.00
2008,05,31,14,17,18.00
2008,05,31,14,18,18.10
2008,05,31,14,19,18.20
2008,05,31,14,20,18.10
2008,05,31,14,21,18.00
2008,05,31,14,22,18.00
2008,05,31,14,23,18.10
2008,05,31,14,24,18.10
2008,05,31,14,25,18.10
2008,05,31,14,26,18.10
2008,05,31,14,27,18.20
2008,05,31,14,28,18.20
2008,05,31,14,29,18.30
2008,05,31,14,30,18.30
2008,05,31,14,31,18.30
2008,05,31,14,32,18.30
2008,05,31,14,33,18.10
2008,05,31,14,34,18.10
2008,05,31,14,35,18.10
2008,05,31,14,36,18.10
2008,05,31,14,37,18.20
2008,05,31,14,38,18.20
2008,05,31,14,39,18.30
2008,05,31,14,40,18.40
2008,05,31,14,41,18.30
2008,05,31,14,42,18.40
2008,05,31,14,43,18.50
2008,05,31,14,44,18.60
2008,05,31,14,45,18.70
2008,05,31,14,46,18.80
2008,05,31,14,47,18.80
2008,05,31,14,48,18.60
2008,05,31,14,49,18.60
2008,05,31,14,50,18.60
2008,05,31,14,51,18.60
2008,05,31,14,52,18.70
2008,05,31,14,53,18.70
2008,05,31,14,54,18.70
2008,05,31,14,55,18.70
2008,05,31,14,56,18.80
2008,05,31,14,57,18.80
2008,05,31,14,58,18.80
2008,05,31,14,59,18.80
2008,05,31,15,00,18.80
2008,05,31,15,01,18.90
2008,05,31,15,02,19.00
2008,05,31,15,03,19.10
2008,05,31,15,04,19.00
2008,05,31,15,05,19.00
2008,05,31,15,06,19.00
2008,05,31,15,07,18.90
2008,05,31,15,08,19.00
2008,05,31,15,09,19.00
2008,05,31,15,10,19.00
2008,05,31,15,11,19.00
2008,05,31,15,12,19.00
2008,05,31,15,13,19.10
2008,05,31,15,14,19.20
2008,05,31,15,15,19.10
2008,05,31,15,16,19.10
2008,05,31,15,17,19.20
2008,05,31,15,18,19.20
2008,05,31,15,19,19.20
2008,05,31,15,20,19.10
2008,05,31,15,21,19.10
2008,05,31,15,22,19.00
2008,05,31,15,23,19.00
2008,05,31,15,24,19.10
2008,05,31,15,25,19.10
2008,05,31,15,26,19.10
2008,05,31,15,27,19.10
2008,05,31,15,28,19.10
2008,05,31,15,29,19.00
2008,05,31,15,30,18.90
2008,05,31,15,31,18.80
2008,05,31,15,32,18.80
2008,05,31,15,33,18.70
2008,05,31,15,34,18.70
2008,05,31,15,35,18.70
2008,05,31,15,36,18.70
2008,05,31,15,37,18.70
2008,05,31,15,38,18.70
2008,05,31,15,39,18.60
2008,05,31,15,40,18.60
2008,05,31,15,41,18.60
2008,05,31,15,42,18.70
2008,05,31,15,43,18.70
2008,05,31,15,44,18.90
2008,05,31,15,45,19.00
2008,05,31,15,46,19.10
2008,05,31,15,47,19.30
2008,05,31,15,48,19.40
2008,05,31,15,49,19.40
2008,05,31,15,50,19.50
2008,05,31,15,51,19.50
2008,05,31,15,52,19.50
2008,05,31,15,53,19.40
2008,05,31,15,54,19.40
2008,05,31,15,55,19.40
2008,05,31,15,56,19.40
2008,05,31,15,57,19.30
2008,05,31,15,58,19.30
2008,05,31,15,59,19.30
2008,05,31,16,00,19.40
2008,05,31,16,01,19.50
2008,05,31,16,02,19.60
2008,05,31,16,03,19.70
2008,05,31,16,04,19.70
2008,05,31,16,05,19.70
2008,05,31,16,06,19.70
2008,05,31,16,07,19.60
2008,05,31,16,08,19.60
2008,05,31,16,09,19.50
2008,05,31,16,10,19.50
2008,05,31,16,11,19.60
2008,05,31,16,12,19.70
2008,05,31,16,13,19.70
2008,05,31,16,14,19.80
2008,05,31,16,15,19.80
2008,05,31,16,16,19.90
2008,05,31,16,17,19.90
2008,05,31,16,18,19.80
2008,05,31,16,19,19.80
2008,05,31,16,20,19.80
2008,05,31,16,21,19.70
2008,05,31,16,22,19.70
2008,05,31,16,23,19.70
2008,05,31,16,24,19.70
2008,05,31,16,25,19.70
2008,05,31,16,26,19.70
2008,05,31,16,27,19.70
2008,05,31,16,28,19.60
2008,05,31,16,29,19.60
2008,05,31,16,30,19.60
2008,05,31,16,31,19.60
2008,05,31,16,32,19.70
2008,05,31,16,33,19.80
2008,05,31,16,34,19.80
2008,05,31,16,35,19.90
2008,05,31,16,36,19.90
2008,05,31,16,37,19.90
2008,05,31,16,38,19.90
2008,05,31,16,39,19.90
2008,05,31,16,40,19.90
2008,05,31,16,41,19.90
2008,05,31,16,42,19.90
2008,05,31,16,43,19.90
2008,05,31,16,44,19.90
2008,05,31,16,45,19.80
2008,05,31,16,46,19.80
2008,05,31,16,47,19.70
2008,05,31,16,48,19.70
2008,05,31,16,49,19.70
2008,05,31,16,50,19.70
2008,05,31,16,51,19.70
2008,05,31,16,52,19.80
2008,05,31,16,53,19.90
2008,05,31,16,54,20.00
2008,05,31,16,55,20.10
2008,05,31,16,56,20.30
2008,05,31,16,57,20.30
2008,05,31,16,58,20.40
2008,05,31,16,59,20.40
2008,05,31,17,00,20.40
2008,05,31,17,01,20.40
2008,05,31,17,02,20.40
2008,05,31,17,03,20.30
2008,05,31,17,04,20.30
2008,05,31,17,05,20.30
2008,05,31,17,06,20.30
2008,05,31,17,07,20.20
2008,05,31,17,08,20.10
2008,05,31,17,09,20.00
2008,05,31,17,10,19.90
2008,05,31,17,11,19.70
2008,05,31,17,12,19.60
2008,05,31,17,13,19.60
2008,05,31,17,14,19.50
2008,05,31,17,15,19.50
2008,05,31,17,16,19.50
2008,05,31,17,17,19.50
2008,05,31,17,18,19.40
2008,05,31,17,19,19.40
2008,05,31,17,20,19.40
2008,05,31,17,21,19.30
2008,05,31,17,22,19.20
2008,05,31,17,23,19.10
2008,05,31,17,24,19.00
2008,05,31,17,25,18.90
2008,05,31,17,26,18.90
2008,05,31,17,27,19.00
2008,05,31,17,28,19.00
2008,05,31,17,29,18.90
2008,05,31,17,30,18.90
2008,05,31,17,31,18.80
2008,05,31,17,32,18.70
2008,05,31,17,33,18.50
2008,05,31,17,34,18.40
2008,05,31,17,35,18.30
2008,05,31,17,36,18.30
2008,05,31,17,37,18.20
2008,05,31,17,38,18.20
2008,05,31,17,39,18.10
2008,05,31,17,40,18.00
2008,05,31,17,41,18.00
2008,05,31,17,42,18.00
2008,05,31,17,43,18.00
2008,05,31,17,44,18.10
2008,05,31,17,45,18.10
2008,05,31,17,46,18.10
2008,05,31,17,47,18.10
2008,05,31,17,48,18.00
2008,05,31,17,49,17.90
2008,05,31,17,50,17.90
2008,05,31,17,51,17.80
2008,05,31,17,52,17.70
2008,05,31,17,53,17.60
2008,05,31,17,54,17.60
2008,05,31,17,55,17.50
2008,05,31,17,56,17.40
2008,05,31,17,57,17.40
2008,05,31,17,58,17.30
2008,05,31,17,59,17.30
2008,05,31,18,00,17.30
2008,05,31,18,01,17.30
2008,05,31,18,02,17.40
2008,05,31,18,03,17.50
2008,05,31,18,04,17.50
2008,05,31,18,05,17.60
2008,05,31,18,06,17.60
2008,05,31,18,07,17.70
2008,05,31,18,08,17.70
2008,05,31,18,09,17.70
2008,05,31,18,10,17.70
2008,05,31,18,11,17.70
2008,05,31,18,12,17.70
2008,05,31,18,13,17.60
2008,05,31,18,14,17.60
2008,05,31,18,15,17.60
2008,05,31,18,16,17.50
2008,05,31,18,17,17.50
2008,05,31,18,18,17.50
2008,05,31,18,19,17.50
2008,05,31,18,20,17.60
2008,05,31,18,21,17.60
2008,05,31,18,22,17.60
2008,05,31,18,23,17.60
2008,05,31,18,24,17.60
2008,05,31,18,25,17.70
2008,05,31,18,26,17.70
2008,05,31,18,27,17.70
2008,05,31,18,28,17.70
2008,05,31,18,29,17.70
2008,05,31,18,30,17.70
2008,05,31,18,31,17.70
2008,05,31,18,32,17.70
2008,05,31,18,33,17.70
2008,05,31,18,34,17.70
2008,05,31,18,35,17.80
2008,05,31,18,36,17.80
2008,05,31,18,37,17.80
2008,05,31,18,38,17.80
2008,05,31,18,39,17.80
2008,05,31,18,40,17.90
2008,05,31,18,41,17.90
2008,05,31,18,42,17.90
2008,05,31,18,43,17.90
2008,05,31,18,44,17.90
2008,05,31,18,45,17.90
2008,05,31,18,46,17.90
2008,05,31,18,47,17.90
2008,05,31,18,48,17.90
2008,05,31,18,49,18.00
2008,05,31,18,50,18.10
2008,05,31,18,51,18.10
2008,05,31,18,52,18.20
2008,05,31,18,53,18.30
2008,05,31,18,54,18.30
2008,05,31,18,55,18.50
2008,05,31,18,56,18.60
2008,05,31,18,57,18.70
2008,05,31,18,58,18.80
2008,05,31,18,59,18.90
2008,05,31,19,00,19.00
2008,05,31,19,01,19.10
2008,05,31,19,02,19.10
2008,05,31,19,03,18.90
2008,05,31,19,04,18.70
2008,05,31,19,05,18.40
2008,05,31,19,06,18.20
2008,05,31,19,07,18.10
2008,05,31,19,08,18.00
2008,05,31,19,09,17.90
2008,05,31,19,10,17.80
2008,05,31,19,11,17.80
2008,05,31,19,12,17.80
2008,05,31,19,13,17.70
2008,05,31,19,14,17.70
2008,05,31,19,15,17.80
2008,05,31,19,16,17.80
2008,05,31,19,17,17.80
2008,05,31,19,18,17.80
2008,05,31,19,19,17.90
2008,05,31,19,20,17.90
2008,05,31,19,21,18.00
2008,05,31,19,22,18.00
2008,05,31,19,23,18.00
2008,05,31,19,24,18.00
2008,05,31,19,25,17.90
2008,05,31,19,26,17.90
2008,05,31,19,27,17.80
2008,05,31,19,28,17.80
2008,05,31,19,29,17.80
2008,05,31,19,30,17.80
2008,05,31,19,31,17.80
2008,05,31,19,32,17.80
2008,05,31,19,33,17.80
2008,05,31,19,34,17.80
2008,05,31,19,35,17.80
2008,05,31,19,36,17.80
2008,05,31,19,37,17.80
2008,05,31,19,38,17.80
2008,05,31,19,39,17.80
